www.pogodaiklimat.ru

Погода и климат >> Архив погоды >> Украина >> Новая Ушица


ПОГОДА в Новой Ушице

  • Прогноз погоды в Новой Ушице
  • Монитор погоды в Новой Ушице
  • Климат города

АРХИВ ПОГОДЫ в Новой Ушице

Время (UTC), дата Ветер
(напр.,м/с)
 
Видим.   Явления Облачность Т
(С)
Тd
(С)
f
(%)
Тe
(С)
Тes
(С)
Комфортность P
(гПа)
Po
(гПа)
Тmin
(С)
Tmax
(С)
R
(мм)
R24
(мм)
S
(см)
15 17.11 ЮВ 2 16 км 10/0
[Ac As]
+3.2 +0.6 83 0 0 1023.4 1023.0
18 17.11 ЮВ 1 н/о 10 баллов +3.1 +1.0 86 0.0 +3.4
21 17.11 В 1 н/о 9/9 600 м
[Sc]
+2.7 +1.4 91 +1 +1 -170.2 1023.0
00 18.11 В 1 н/о дымка 10 баллов +2.5 +1.6 94 0.0
03 18.11 В 1 н/о дымка 10 баллов +2.5 +1.5 93 0.0
06 18.11 штиль 0 7000 м дымка 10 баллов +2.5 +1.5 93 0.0 +2.4
09 18.11 В 1 7000 м дымка 10 баллов +3.1 +1.8 91 0.0
12 18.11 ЮВ 1 8000 м дымка 10 баллов +4.2 +2.2 87 0.0
15 18.11 Ю 1 6000 м слабый ливневой дождь 10 баллов +3.4 +2.4 93 0.0
18 18.11 Ю 1 н/о слабый ливневой дождь 10 баллов +3.4 +2.7 95 0.0 +4.2 1
21 18.11 ЮВ 1 н/о слабый ливневой дождь 10 баллов +3.5 +3.1 97 0.0
00 19.11 Ю 2 н/о слабый ливневой дождь 10 баллов +3.5 +3.1 97 0.0 1.0
03 19.11 ЮЗ 2 н/о слабый ливневой дождь 10 баллов +3.3 +2.9 97 0.0
06 19.11 ЮЗ 2 1800 м дымка 10 баллов +3.0 +2.6 97 0.0 +2.9 3
09 19.11 СЗ 3 35 км 10/10 300 м
[Cb cap]
+3.3 +2.3 93 -1 -1 1011.3 1011.0
12 19.11 З 2 50 км 9 баллов +3.3 +1.3 87 0.0
15 19.11 ЮЗ 1 60 км 8/0
[Ac trans Ci fib]
+2.5 +0.4 86 +1 +1 1011.5 1012.0
18 19.11 ЮЗ 1 н/о 7 баллов +0.6 -0.5 92 1349.9 +3.7
21 19.11 Ю 1 н/о 8/0
[Ac trans Ci fib]
-0.5 -1.4 94 -3 -3 1012.3 1012.0
00 20.11 штиль 0 н/о дымка 6 баллов -2.7 -3.2 96 0.0
03 20.11 штиль 0 н/о переохл. туман н/о -3.4 -3.7 98 -169.1
06 20.11 штиль 0 1300 м дымка 6 баллов -4.3 -4.8 96 0.0 -4.4
09 20.11 ЮЗ 1 800 м туман 6 баллов +1.2 +0.3 94 0.0
12 20.11 штиль 0 45 км 7 баллов +4.5 +1.9 83 0.0
15 20.11 З 2 н/о 8/6 600 м
[Sc Ac trans]
+2.5 -1.4 75 -0 -0 1011.6 1012.0
18 20.11 СЗ 4 н/о 9 баллов +2.5 -0.4 81 1350.7 +4.9
21 20.11 З 5 н/о ясно +0.1 -3.9 74 -6 -6 1013.4 1013.0
00 21.11 З 4 н/о 10 баллов +0.5 -3.4 75 0.0
03 21.11 З 3 н/о ясно -0.6 -4.3 76 0.0
06 21.11 З 2 5000 м слабый ливневой снег 9 баллов -0.7 -2.1 90 0.0 -1.6 0.2
09 21.11 З 2 н/о слабый ливневой снег н/о -0.1 -0.9 94 -4 1017.4 981.3
12 21.11 З 3 н/о 9 баллов +2.1 -0.8 81 1355.7 2.0
15 21.11 З 2 н/о 9/6 200 м
[Cb cap Ac und]
+0.4 -2.5 81 -3 -3 1015.1 1015.0
18 21.11 З 2 н/о 4 балла -1.6 -3.3 88 0.0 +2.1 2
21 21.11 штиль 0 н/о 3/0
[Ci fib]
-3.5 -4.6 92 -5 -5 -168.7 1016.0
00 22.11 ЮЗ 2 н/о 9 баллов -2.9 -3.9 93 0.0
03 22.11 З 2 н/о 10 баллов -2.2 -3.0 94 0.0
06 22.11 штиль 0 30 км в посл. час снег 10 баллов -1.7 -2.3 96 0.0 -4.0 0.0
09 22.11 С 1 5000 м слабый ливневой снег 10 баллов -1.1 -2.1 93 0.0
12 22.11 СЗ 1 45 км 10 баллов -0.1 -1.5 90 0.0 0.2
15 22.11 штиль 0 н/о 10/0
[Ac cuf]
-0.6 -2.4 88 -2 -2 1017.7 1018.0
18 22.11 В 1 н/о ясно -2.5 -3.3 94 1359.5 0.0 0.2
21 22.11 В 1 н/о 6/0
[Ci fib]
-3.5 -4.3 94 -6 -6 1020.5 1021.0
00 23.11 В 1 н/о дымка ясно -4.8 -5.3 96 0.0
03 23.11 В 1 н/о дымка ясно -5.3 -5.6 98 0.0
06 23.11 ЮВ 2 8000 м дымка 7 баллов -4.4 -5.6 91 0.0 -5.5
09 23.11 В 2 30 км 9/0
[Ac und]
-0.7 -3.2 83 -4 -4 1023.1 1023.0
12 23.11 ЮВ 2 50 км 9 баллов +1.2 -2.6 76 1364.3
15 23.11 В 1 н/о 10/10 600 м
[Sc]
+0.4 -2.4 81 -1 -1 1022.4 1022.0
18 23.11 ЮВ 1 н/о 10 баллов +0.3 -2.2 83 0.0 +1.5
21 23.11 ЮВ 1 н/о 10/10 600 м
[Sc]
-1.3 -3.3 86 -3 -3 -170.0 1023.0
00 24.11 В 1 н/о 10 баллов -2.8 -4.4 89 0.0
03 24.11 В 1 н/о 7 баллов -3.1 -4.5 90 0.0
06 24.11 ЮВ 1 8000 м дымка 7 баллов -3.3 -4.7 90 0.0 -3.4
09 24.11 ЮВ 1 15 км 9/0
[Ac trans Cs]
+0.2 -1.7 87 -2 0 1023.1 1023.0
12 24.11 ЮВ 2 22 км 9 баллов +1.8 -1.3 80 0.0

 

Местоположение метеостанции Новая Ушица (Хмельницкая область, Украина): широта 48.85 долгота 27.27 высота над уровнем моря 290 м.

В архиве по умолчанию представлена погода в Новой Ушице за последнюю неделю. Архивные данные за месяц целиком и за предыдущие месяцы, начиная с января 2011 года, Вы можете получить, выбрав интересующий диапазон дат из раскрывающегося списка и нажав кнопку "Ввод!".

Внимание! Время в таблицах - всемирное. Для получения местного времени необходимо прибавить поправку, которая в Новой Ушице равна 2 ч.

Смотрите также архив погоды в соседних городах и на ближайших метеорологических станциях:

Погода в Новоднестровске (Черновицкая область, Украина) (34 км)
Погода в Каменец-Подольском (Хмельницкая область, Украина) (49 км)
Погода в Бричанах (Молдова) (57 км)
Погода в Могилев-Подольском (Винницкая область, Украина) (58 км)
Погода в Хмельнике (Винницкая область, Украина) (58 км)
Погода в Жмеринке (Винницкая область, Украина) (65 км)
Погода в Хмельницком (Хмельницкая область, Украина) (68 км)
Погода в Darabani (Румыния) (88 км)
Погода в Сороках (Молдова) (105 км)
Погода в Виннице (Винницкая область, Украина) (106 км)

Пояснения к столбцам:

Ветер - указаны скорость ветра в м/с - средняя за 10 мин, порывы в срок и между сроками (в фигурных скобках) и направление, откуда дует ветер: С - северный, СВ - северо-восточный, В - восточный, ЮВ - юго-восточный, Ю - южный, ЮЗ - юго-западный, З - западный, СЗ - северо-западный.
Видимость - горизонтальная дальность видимости в метрах или километрах. При видимости от 1 до 10 км при отсутствии осадков обычно наблюдается дымка, при ухудшении видимости до 1 км и менее - туман. В сухую погоду видимость может ухудшаться дымом, пылью или мглою.
Явления - указаны атмосферные явления, наблюдавшиеся в срок или в последний час перед сроком; фигурными скобками обозначены явления, наблюдавшиеся между сроками (за 1-3 часа до срока); квадратными скобками обозначены град или гололедные отложения с указанием их диаметра в мм.
Облачность - указаны через наклонную черту общая и нижняя облачность в баллах и высота нижней границы облаков в метрах; квадратными скобками обозначены формы облаков: Ci - перистые, Cs - перисто-слоистые, Cc - перисто-кучевые, Ac - высококучевые, As - высокослоистые, Sc - слоисто-кучевые, Ns - слоисто-дождевые, Cu - кучевые, Cb - кучево-дождевые. Подробнее классификацию облаков см. в Атласе облаков (PDF).
T - Температура воздуха - температура, измеренная на высоте 2 м над землей.
Td - Температура точки росы - температура, при понижении до которой содержащийся в воздухе водяной пар достигнет насыщения.
f - Относительная влажность воздуха - влажноcть воздуха, измеренная на высоте 2 м над землей.
Te - Эффективная температура - температура, которую ощущает одетый по сезону человек в тени. Характеристика душности погоды. При расчете учитывается влияние влажности воздуха и скорости ветра на теплоощущения человека.
Tes - Эффективная температура на солнце - температура, которую ощущает человек, с поправкой на солнечный нагрев. Характеристика знойности погоды. Зависит от высоты солнца над горизонтом, облачности и скорости ветра. Ночью, в пасмурную погоду, а также при ветре 12 м/с и более поправка равна нулю.
P - Атмосферное давление - приведенное к уровню моря атмосферное давление.
Po - Атмосферное давление - измеренное на уровне метеостанции атмосферное давление.
Tmin - Минимальная температура - минимум температуры воздуха на высоте 2 м над землей.
Tmax - Максимальная температура - максимум температуры воздуха на высоте 2 м над землей.
R - Количество осадков - Количество выпавших осадков за период времени, мм. При наведении курсора мыши на число - период времени, за который выпало указанное количество осадков.
R24 - Количество осадков - Количество выпавших осадков за 24 часа, мм.
S - Снежный покров - Высота снежного покрова, см. При наведении курсора мыши на число - состояние снежного покрова и степень покрытия местности в баллах.